DW8338 Weather Reports


Display with metric or nautical units.
time (UTC)temp
F
wind
direction
speed
MPH
gust
MPH
rain 1hr
in
rain 24hr
in
rain mn
in
humidity
%
barometer
mb
20190325204258 69 111 4.0 10.0 0.00 0.00 0.00 44 1012.2
20190325203358 70 105 4.0 11.0 0.00 0.00 0.00 43 1012.2
20190325202458 70 101 4.0 11.0 0.00 0.00 0.00 43 1012.1
20190325201558 70 109 5.0 10.0 0.00 0.00 0.00 43 1012.1
20190325200658 71 105 4.0 9.0 0.00 0.00 0.00 42 1012.0
20190325195758 71 113 4.0 10.0 0.00 0.00 0.00 41 1012.0
20190325194858 71 110 4.0 9.0 0.00 0.00 0.00 41 1011.9
20190325193958 72 113 4.0 9.0 0.00 0.00 0.00 41 1011.8
20190325193058 72 106 4.0 10.0 0.00 0.00 0.00 41 1011.8
20190325192158 72 114 4.0 10.0 0.00 0.00 0.00 40 1011.7
20190325191258 73 112 4.0 10.0 0.00 0.00 0.00 40 1011.7
20190325190358 73 113 4.0 9.0 0.00 0.00 0.00 40 1011.8
20190325185458 73 111 4.0 9.0 0.00 0.00 0.00 40 1011.8
20190325184557 74 107 4.0 8.0 0.00 0.00 0.00 40 1011.7
20190325183658 74 111 5.0 9.0 0.00 0.00 0.00 39 1011.9
20190325182758 74 106 4.0 9.0 0.00 0.00 0.00 39 1011.8
20190325181858 74 113 5.0 9.0 0.00 0.00 0.00 39 1011.8
20190325180958 75 102 4.0 10.0 0.00 0.00 0.00 38 1011.7
20190325180058 75 115 5.0 11.0 0.00 0.00 0.00 38 1011.7
20190325175157 76 110 7.0 11.0 0.00 0.00 0.00 37 1011.7
20190325174257 76 102 7.0 14.0 0.00 0.00 0.00 37 1011.6
20190325173357 76 107 6.0 12.0 0.00 0.00 0.00 37 1011.6
20190325172457 76 101 6.0 11.0 0.00 0.00 0.00 37 1011.6
20190325171557 76 103 7.0 11.0 0.00 0.00 0.00 37 1011.5
20190325170657 76 110 7.0 17.0 0.00 0.00 0.00 36 1011.6
20190325165757 76 105 7.0 12.0 0.00 0.00 0.00 36 1011.5
20190325164857 76 110 5.0 14.0 0.00 0.00 0.00 36 1011.6
20190325163957 76 99 7.0 11.0 0.00 0.00 0.00 36 1011.6
20190325163057 76 98 7.0 15.0 0.00 0.00 0.00 36 1011.7
20190325162157 76 87 7.0 12.0 0.00 0.00 0.00 35 1011.8
20190325161257 76 78 8.0 15.0 0.00 0.00 0.00 36 1011.9
20190325160358 76 80 8.0 16.0 0.00 0.00 0.00 36 1012.0
20190325155457 76 87 8.0 17.0 0.00 0.00 0.00 35 1012.2
20190325154557 76 90 9.0 15.0 0.00 0.00 0.00 36 1012.2
20190325153657 76 74 7.0 17.0 0.00 0.00 0.00 36 1012.4
20190325152757 76 64 9.0 14.0 0.00 0.00 0.00 36 1012.4
20190325151857 75 74 10.0 19.0 0.00 0.00 0.00 36 1012.6
20190325150957 76 74 9.0 21.0 0.00 0.00 0.00 36 1012.6
20190325150057 76 66 7.0 21.0 0.00 0.00 0.00 36 1012.8
20190325145157 76 76 9.0 15.0 0.00 0.00 0.00 37 1012.9
20190325144257 76 72 8.0 16.0 0.00 0.00 0.00 36 1013.1
20190325143357 75 77 10.0 16.0 0.00 0.00 0.00 37 1013.2
20190325142457 75 74 10.0 21.0 0.00 0.00 0.00 37 1013.4
20190325141557 75 67 9.0 17.0 0.00 0.00 0.00 36 1013.6
20190325140657 75 74 7.0 16.0 0.00 0.00 0.00 36 1013.7
20190325135757 75 68 9.0 17.0 0.00 0.00 0.00 37 1013.8
20190325134857 74 64 10.0 20.0 0.00 0.00 0.00 37 1014.0
20190325133957 74 62 9.0 22.0 0.00 0.00 0.00 37 1014.2
20190325133057 74 77 9.0 19.0 0.00 0.00 0.00 37 1014.3
20190325132157 74 67 8.0 15.0 0.00 0.00 0.00 37 1014.5
20190325131257 73 70 8.0 14.0 0.00 0.00 0.00 37 1014.7
20190325130357 73 74 10.0 17.0 0.00 0.00 0.00 37 1014.9
20190325125457 73 75 8.0 21.0 0.00 0.00 0.00 36 1015.0
20190325124557 73 63 8.0 15.0 0.00 0.00 0.00 35 1015.4
20190325123657 72 73 10.0 17.0 0.00 0.00 0.00 35 1015.5
20190325122757 72 74 10.0 16.0 0.00 0.00 0.00 36 1015.6
20190325121857 72 59 10.0 21.0 0.00 0.00 0.00 36 1015.8
20190325120957 71 56 8.0 17.0 0.00 0.00 0.00 36 1016.0
20190325120057 71 60 8.0 17.0 0.00 0.00 0.00 37 1016.1
20190325115157 71 69 8.0 18.0 0.00 0.00 0.00 39 1016.2
20190325114257 71 66 9.0 18.0 0.00 0.00 0.00 39 1016.4
20190325113357 70 68 9.0 17.0 0.00 0.00 0.00 40 1016.6
20190325112457 70 62 9.0 16.0 0.00 0.00 0.00 41 1016.7
20190325111557 69 66 7.0 21.0 0.00 0.00 0.00 41 1016.9
20190325110657 69 63 8.0 20.0 0.00 0.00 0.00 42 1016.9
20190325105757 69 70 8.0 20.0 0.00 0.00 0.00 44 1017.1
20190325104857 68 58 7.0 15.0 0.00 0.00 0.00 45 1017.2
20190325103957 67 50 6.0 13.0 0.00 0.00 0.00 47 1017.5
20190325103057 67 46 7.0 13.0 0.00 0.00 0.00 48 1017.6
20190325102157 66 51 7.0 14.0 0.00 0.00 0.00 48 1017.8
20190325101257 65 39 8.0 17.0 0.00 0.00 0.00 49 1017.9
20190325100357 65 53 8.0 15.0 0.00 0.00 0.00 50 1017.9
20190325095457 64 53 6.0 15.0 0.00 0.00 0.00 52 1018.0
20190325094557 63 42 7.0 14.0 0.00 0.00 0.00 55 1018.1
20190325093656 62 45 5.0 16.0 0.00 0.00 0.00 56 1018.1
20190325092757 62 47 5.0 11.0 0.00 0.00 0.00 57 1018.2
20190325091856 61 34 5.0 11.0 0.00 0.00 0.00 60 1018.2
20190325090956 60 30 5.0 11.0 0.00 0.00 0.00 62 1018.3
20190325090100 59 33 5.0 11.0 0.00 0.00 0.00 65 1018.3
20190325085156 57 13 3.0 11.0 0.00 0.00 0.00 69 1018.2
20190325084256 55 349 3.0 6.0 0.00 0.00 0.00 75 1018.2
20190325083356 54 348 2.0 6.0 0.00 0.00 0.00 76 1018.2
20190325082456 53 346 4.0 7.0 0.00 0.00 0.00 77 1018.2
20190325081556 53 342 3.0 7.0 0.00 0.00 0.00 77 1018.1
20190325080656 53 354 2.0 6.0 0.00 0.00 0.00 76 1018.1
20190325075756 53 355 3.0 5.0 0.00 0.00 0.00 77 1018.0
20190325074856 52 349 5.0 9.0 0.00 0.00 0.00 78 1017.9
20190325073956 52 344 5.0 10.0 0.00 0.00 0.00 78 1017.9
20190325073056 52 350 4.0 8.0 0.00 0.00 0.00 77 1018.1
20190325072156 52 351 4.0 10.0 0.00 0.00 0.00 77 1018.0
20190325071256 53 349 3.0 7.0 0.00 0.00 0.00 76 1018.0
20190325070356 53 358 3.0 8.0 0.00 0.00 0.00 76 1018.0
20190325065456 53 6 3.0 7.0 0.00 0.00 0.00 76 1017.9
20190325064556 52 6 2.0 7.0 0.00 0.00 0.00 78 1017.8
20190325063656 52 346 3.0 5.0 0.00 0.00 0.00 79 1017.9
20190325062756 52 337 2.0 5.0 0.00 0.00 0.00 78 1017.9
20190325061856 52 327 2.0 5.0 0.00 0.00 0.00 78 1017.9
20190325060956 52 320 1.0 4.0 0.00 0.00 0.00 78 1017.8
20190325060056 53 351 1.0 3.0 0.00 0.00 0.00 77 1017.7
20190325055156 53 45 1.0 3.0 0.00 0.00 0.00 77 1017.7
20190325054256 52 11 0.0 2.0 0.00 0.00 0.00 78 1017.7
20190325053356 52 323 2.0 3.0 0.00 0.00 0.00 78 1017.7
20190325052456 52 330 2.0 3.0 0.00 0.00 0.00 78 1017.7
20190325051556 52 330 2.0 4.0 0.00 0.00 0.00 78 1017.6
20190325050656 52 326 1.0 4.0 0.00 0.00 0.00 78 1017.6
20190325045756 53 4 2.0 4.0 0.00 0.00 0.00 77 1017.6
20190325044856 52 1 1.0 4.0 0.00 0.00 0.00 78 1017.6
20190325043956 52 340 2.0 4.0 0.00 0.00 0.00 77 1017.4
20190325043056 53 339 2.0 4.0 0.00 0.00 0.00 76 1017.5
20190325042156 53 6 2.0 5.0 0.00 0.00 0.00 76 1017.5
20190325041256 53 349 2.0 4.0 0.00 0.00 0.00 76 1017.5
20190325040356 53 351 2.0 4.0 0.00 0.00 0.00 75 1017.5
20190325035456 53 357 2.0 6.0 0.00 0.00 0.00 75 1017.7
20190325034556 53 3 2.0 5.0 0.00 0.00 0.00 76 1017.8
20190325033656 53 350 3.0 5.0 0.00 0.00 0.00 76 1017.9
20190325032756 53 359 3.0 6.0 0.00 0.00 0.00 76 1018.0
20190325031856 53 2 3.0 6.0 0.00 0.00 0.00 76 1018.0
20190325030956 54 4 3.0 6.0 0.00 0.00 0.00 75 1018.1
20190325030056 54 357 2.0 5.0 0.00 0.00 0.00 75 1018.1
20190325025156 54 349 2.0 5.0 0.00 0.00 0.00 75 1018.1
20190325024256 54 348 2.0 5.0 0.00 0.00 0.00 74 1018.1
20190325023356 55 350 2.0 5.0 0.00 0.00 0.00 72 1018.1
20190325022456 55 354 2.0 5.0 0.00 0.00 0.00 72 1018.2
20190325021556 55 352 2.0 5.0 0.00 0.00 0.00 72 1018.4
20190325020656 55 355 3.0 6.0 0.00 0.00 0.00 73 1018.5
20190325015756 55 347 3.0 6.0 0.00 0.00 0.00 72 1018.5
20190325014856 55 334 3.0 5.0 0.00 0.00 0.00 71 1018.6
20190325013955 56 353 2.0 6.0 0.00 0.00 0.00 69 1018.5
20190325013055 56 355 2.0 5.0 0.00 0.00 0.00 69 1018.6
20190325012156 56 359 1.0 4.0 0.00 0.00 0.00 69 1018.5
20190325011255 56 349 2.0 4.0 0.00 0.00 0.00 68 1018.5
20190325010355 57 352 2.0 4.0 0.00 0.00 0.00 67 1018.5
20190325005455 57 1 2.0 4.0 0.00 0.00 0.00 67 1018.6
20190325004556 57 351 2.0 6.0 0.00 0.00 0.00 66 1018.6
20190325003655 58 359 3.0 5.0 0.00 0.00 0.00 65 1018.7
20190325002756 58 5 2.0 5.0 0.00 0.00 0.00 65 1018.6
20190325001856 58 9 2.0 5.0 0.00 0.00 0.00 64 1018.6
20190325000955 58 5 2.0 5.0 0.00 0.00 0.00 63 1018.7
20190325000055 58 359 3.0 4.0 0.00 0.00 0.00 62 1018.8
20190324235155 59 349 2.0 5.0 0.00 0.00 0.00 62 1018.8
20190324234255 59 3 3.0 5.0 0.00 0.00 0.00 62 1018.8
20190324233355 59 9 2.0 5.0 0.00 0.00 0.00 61 1018.9
20190324232455 60 6 3.0 4.0 0.00 0.00 0.00 61 1019.0
20190324231555 60 7 3.0 6.0 0.00 0.00 0.00 61 1019.0
20190324230655 60 2 2.0 5.0 0.00 0.00 0.00 60 1019.0
20190324225755 60 353 2.0 4.0 0.00 0.00 0.00 60 1019.1
20190324224855 60 356 3.0 5.0 0.00 0.00 0.00 60 1019.1
20190324223955 60 1 4.0 7.0 0.00 0.00 0.00 60 1019.2
20190324223055 61 9 3.0 7.0 0.00 0.00 0.00 59 1019.3
20190324222155 61 351 3.0 5.0 0.00 0.00 0.00 58 1019.2
20190324221255 61 341 3.0 5.0 0.00 0.00 0.00 57 1019.2
20190324220355 62 330 3.0 5.0 0.00 0.00 0.00 56 1019.3
20190324215455 64 335 1.0 4.0 0.00 0.00 0.00 54 1019.3
20190324214555 65 64 0.0 2.0 0.00 0.00 0.00 52 1019.5
20190324213655 65 67 0.0 1.0 0.00 0.00 0.00 52 1019.5
20190324212755 65 66 1.0 2.0 0.00 0.00 0.00 51 1019.5
20190324211855 65 65 1.0 3.0 0.00 0.00 0.00 51 1019.5
20190324210955 65 86 2.0 3.0 0.00 0.00 0.00 51 1019.5
20190324210055 65 102 2.0 5.0 0.00 0.00 0.00 50 1019.4
20190324205155 65 99 1.0 5.0 0.00 0.00 0.00 50 1019.4